Home   Weather   Munich   Past weeks

Flag for Germany Past Weather in Munich, Bavaria, Germany — Yesterday and Last 2 Weeks

Now
39 °F

Clear.


Feels Like: 37 °F
Forecast: 40 / 57 °F
Wind: 3 mph from Northeast

Location: Munich / Franz Josef Strauss Airport

Current Time: May 1, 2017 at 4:33:13 am

Latest Report: May 1, 2017 at 3:50 am


Visibility: 10 mi

Pressure: 29.71 "Hg (27.84 "Hg at 526m altitude)

Humidity: 81%

Dew Point: 34 °F

Location of MunichLocation

Past Weather in Munich — Graph

°F

Munich Temperature Yesterday

Maximum temperature yesterday: 59 °F (at 4:20 pm)
Minimum temperature yesterday: 32 °F (at 2:20 am)
Average temperature yesterday: 47 °F

High & Low Weather Summary for the Past Weeks

 TemperatureHumidityPressure
High61 °F (Apr 24, 5:20 pm)100% (Apr 18, 2:20 pm)30.51 "Hg (Apr 18, 2:20 pm)
Low23 °F (Apr 21, 5:50 am)33% (Apr 24, 3:50 pm)29.74 "Hg (Apr 25, 3:20 am)
Average41 °F77%30.07 "Hg
* Reported Apr 16 3:20 am — May 1 3:20 am, Munich, Weather by CustomWeather, © 2017

Note: Actual official high and low records may vary slightly from our data, if they occured in-between our weather recording intervals... More about our weather records

Advertising

Munich Weather History for the Previous 24 Hours

Scroll right to see more
 ConditionsComfort  
Time TempWeatherWind HumidityBarometerVisibility
3:20 am
Mon, May 1
39 °FClear.3 mph87%29.74 "Hg10 mi
2:20 am41 °FClear.3 mph81%29.74 "Hg10 mi
1:50 am41 °FClear.6 mph76%29.74 "Hg10 mi
12:50 am45 °FPassing clouds.7 mph71%29.74 "HgN/A
12:20 am46 °FClear.7 mph66%29.77 "Hg10 mi
11:50 pm
Sun, Apr 30
48 °FClear.7 mph62%29.74 "Hg10 mi
11:20 pm48 °FPassing clouds.9 mph62%29.77 "HgN/A
10:50 pm50 °FClear.8 mph62%29.77 "Hg10 mi
10:20 pm50 °FClear.8 mph62%29.77 "Hg10 mi
9:50 pm50 °FClear.9 mph62%29.77 "Hg10 mi
9:20 pm52 °FClear.8 mph58%29.77 "Hg10 mi
8:50 pm52 °FClear.7 mph62%29.77 "Hg10 mi
8:20 pm55 °FSunny.9 mph55%29.77 "Hg10 mi
7:50 pm57 °FSunny.10 mph51%29.77 "Hg10 mi
7:20 pm57 °FSunny.15 mph51%29.77 "Hg10 mi
6:50 pm59 °FSunny.15 mph48%29.77 "Hg10 mi
6:20 pm59 °FSunny.17 mph45%29.80 "Hg10 mi
5:50 pm59 °FSunny.17 mph45%29.80 "Hg10 mi
5:20 pm59 °FSunny.16 mph42%29.83 "Hg10 mi
4:50 pm59 °FSunny.16 mph39%29.83 "Hg10 mi
4:20 pm59 °FPassing clouds.18 mph39%29.86 "HgN/A
3:50 pm57 °FSunny.17 mph44%29.86 "Hg10 mi
3:20 pm57 °FPassing clouds.16 mph44%29.86 "HgN/A
2:50 pm57 °FPassing clouds.16 mph41%29.89 "HgN/A
2:20 pm57 °FPassing clouds.17 mph44%29.89 "HgN/A
1:50 pm55 °FSunny.18 mph47%29.89 "Hg10 mi
1:20 pm55 °FSunny.17 mph51%29.92 "Hg10 mi
12:50 pm54 °FSunny.18 mph47%29.92 "Hg10 mi
12:20 pm54 °FSunny.17 mph51%29.95 "Hg10 mi
11:50 am54 °FSunny.18 mph51%29.95 "Hg10 mi
11:20 am52 °FSunny.20 mph50%29.95 "Hg10 mi
10:50 am50 °FPassing clouds.20 mph54%29.98 "HgN/A
10:20 am48 °FSunny.16 mph62%29.98 "Hg10 mi
9:50 am48 °FSunny.16 mph62%29.98 "Hg10 mi
9:20 am46 °FSunny.13 mph71%29.98 "Hg10 mi
8:50 am43 °FSunny.9 mph76%29.98 "Hg10 mi
8:20 am41 °FFog.7 mph87%29.98 "Hg6 mi
7:50 am37 °FFog.5 mph93%30.01 "Hg6 mi
7:20 am36 °FFog.3 mph93%30.01 "Hg5 mi
6:50 am34 °FFog.3 mph93%30.01 "Hg4 mi
6:20 am32 °FFog.5 mph100%30.01 "Hg4 mi
5:50 am32 °FFog.5 mph100%29.98 "Hg6 mi
5:20 am32 °FFog.3 mph93%30.01 "HgN/A
4:50 am32 °FClear.5 mph93%29.98 "Hg10 mi
4:20 am32 °FFog.5 mph93%30.01 "HgN/A
Weather by CustomWeather, © 2017

See weather overviewHow to use our weather pages